Home   Weather   Coesfeld   Past weeks

Flag for Germany Past Weather in Coesfeld, North Rhine-Westphalia, Germany — Yesterday and Last 2 Weeks

Now
37 °F

Chilly.


Feels Like: 31 °F
Forecast: 37 / 57 °F
Wind: 8 mph from West

Location: Rheine-Bentlage

Current Time: Apr 23, 2017 at 7:44:52 am

Latest Report: Apr 23, 2017 at 6:20 am


Visibility: N/A

Pressure: 30.24 "Hg

Humidity: 87%

Dew Point: 34 °F

Location of CoesfeldLocation

Past Weather in Coesfeld — Graph

°F

Coesfeld Temperature Yesterday

Maximum temperature yesterday: 50 °F (at 2:20 pm)
Minimum temperature yesterday: 43 °F (at 5:20 am)
Average temperature yesterday: 46 °F

High & Low Weather Summary for the Past Weeks

 TemperatureHumidityPressure
High70 °F (Apr 9, 5:20 pm)100% (Apr 9, 2:20 am)30.63 "Hg (Apr 9, 2:20 am)
Low27 °F (Apr 20, 6:20 am)30% (Apr 20, 3:20 pm)29.83 "Hg (Apr 15, 5:20 am)
Average46 °F70%30.17 "Hg
* Reported Apr 8 6:20 am — Apr 23 6:20 am, Coesfeld, Weather by CustomWeather, © 2017

Note: Actual official high and low records may vary slightly from our data, if they occured in-between our weather recording intervals... More about our weather records

Advertising

Coesfeld Weather History for the Previous 24 Hours

Scroll right to see more
 ConditionsComfort  
Time TempWeatherWind HumidityBarometerVisibility
6:20 am
Sun, Apr 23
37 °FChilly.8 mph87%30.24 "HgN/A
5:20 am37 °FChilly.8 mph87%30.21 "HgN/A
4:20 am37 °FChilly.8 mph87%30.21 "HgN/A
3:20 am39 °FChilly.10 mph81%30.21 "HgN/A
2:20 am39 °FChilly.9 mph81%30.21 "HgN/A
1:20 am39 °FChilly.10 mph81%30.24 "HgN/A
12:20 am41 °FQuite cool.10 mph70%30.24 "HgN/A
11:20 pm
Sat, Apr 22
43 °FQuite cool.10 mph66%30.24 "HgN/A
10:20 pm43 °FQuite cool.9 mph66%30.24 "HgN/A
9:20 pm43 °FQuite cool.10 mph66%30.21 "HgN/A
8:20 pm45 °FQuite cool.12 mph57%30.21 "HgN/A
7:20 pm46 °FCool.9 mph57%30.21 "HgN/A
6:20 pm46 °FCool.14 mph53%30.21 "HgN/A
5:20 pm48 °FCool.12 mph50%30.21 "HgN/A
4:20 pm48 °FCool.20 mph46%30.21 "HgN/A
3:20 pm50 °FCool.16 mph43%30.21 "HgN/A
2:20 pm50 °FCool.16 mph43%30.24 "HgN/A
1:20 pm48 °FCool.15 mph46%30.24 "HgN/A
12:20 pm48 °FCool.15 mph58%30.24 "HgN/A
11:20 am46 °FCool.20 mph57%30.24 "HgN/A
10:20 am46 °FCool.16 mph62%30.24 "HgN/A
9:20 am45 °FQuite cool.10 mph76%30.24 "HgN/A
8:20 am43 °FQuite cool.12 mph76%30.24 "HgN/A
7:20 am43 °FQuite cool.9 mph81%30.24 "HgN/A
Weather by CustomWeather, © 2017

See weather overviewHow to use our weather pages